Danville, VA

9:03 PM EST on November 21, 2019 (GMT -0500)
Danville Regional

Weather History for KDAN - October, 2019

Change the Weather History Date:

Tuesday, October 22, 2019

  Actual Average Record
Temperature  
Mean Temperature 59 °F 58 °F  
Max Temperature 68 °F 68 °F 87 °F (1920)
Min Temperature 50 °F 47 °F 25 °F (1952)
Degree Days  
Heating Degree Days 6 8  
Month to date heating degree days 75 120  
Since 1 July heating degree days 79 148  
Cooling Degree Days 0 1  
Month to date cooling degree days 73 29  
Year to date cooling degree days 1763 1432  
Growing Degree Days 9 (Base 50)    
Moisture  
Dew Point 60 °F    
Average Humidity 94    
Maximum Humidity 100    
Minimum Humidity 80    
Precipitation  
Precipitation 0.59 in 0.10 in 0.95 in (1985)
Month to date precipitation 4.44 2.54  
Year to date precipitation 34.43 36.79  
Snow  
Snow 0.00 in - - ()
Month to date snowfall 0.0  
Since 1 July snowfall 0.0  
Since 1 September snowfall 0.0  
Snow Depth 0.00 in    
Sea Level Pressure  
Sea Level Pressure 29.88 in    
Wind  
Wind Speed 3 mph ()    
Max Wind Speed 21 mph    
Max Gust Speed 26 mph    
Visibility 5.5 miles    
Events Rain    
T = Trace of Precipitation, MM = Missing Value Source: Averaged Metar Reports

Daily Weather History Graph

Daily Weather History Graph

Search for Another Location

Airport or City:

Astronomy

Oct. 22, 2019 Rise Set
Actual Time 7:30 AM EDT 6:32 PM EDT
Civil Twilight 7:04 AM EDT 6:58 PM EDT
Nautical Twilight 6:34 AM EDT 7:28 PM EDT
Astronomical Twilight 6:04 AM EDT 7:58 PM EDT
Moon 12:52 AM EDT 3:27 PM EDT
Length of Visible Light 11h 53m
Length of Day
11h 01m
Last Quarter, 37% of the Moon is Illuminated
Oct 22
Last Quarter
Oct 27
New
Nov 4
First Quarter
Nov 12
Full
Nov 19
Last Quarter

Hourly Weather History & Observations

Time (EDT) Temp. Dew Point Humidity Pressure Visibility Wind Dir Wind Speed Gust Speed Precip Events Conditions
12:20 AM 60.1 °F 59.0 °F 96% 30.06 in 10.0 mi East 3.5 mph - N/A   Overcast
12:53 AM 60.1 °F 59.0 °F 96% 30.01 in 10.0 mi Calm Calm - N/A   Overcast
1:53 AM 61.0 °F 59.0 °F 93% 30.01 in 10.0 mi Variable 3.5 mph - N/A   Overcast
2:53 AM 61.0 °F 57.9 °F 90% 29.99 in 10.0 mi SE 3.5 mph - N/A   Overcast
3:53 AM 60.1 °F 59.0 °F 96% 29.96 in 7.0 mi Calm Calm - N/A   Overcast
4:53 AM 60.1 °F 59.0 °F 96% 29.95 in 5.0 mi Calm Calm - N/A   Overcast
5:53 AM 60.1 °F 59.0 °F 96% 29.95 in 4.0 mi Variable 4.6 mph - N/A   Overcast
6:53 AM 60.1 °F 60.1 °F 100% 29.94 in 2.5 mi Variable 3.5 mph - N/A   Overcast
7:20 AM 60.1 °F 60.1 °F 100% 29.95 in 1.8 mi Variable 3.5 mph - N/A   Overcast
7:30 AM 60.1 °F 60.1 °F 100% 29.95 in 2.0 mi Variable 3.5 mph - N/A   Overcast
8:53 AM 61.0 °F 60.1 °F 97% 29.91 in 2.0 mi Variable 3.5 mph - 0.00 in Rain Light Rain
9:12 AM 61.0 °F 60.1 °F 97% 29.93 in 4.0 mi Variable 3.5 mph - 0.00 in   Overcast
9:49 AM 62.6 °F 60.8 °F 94% 29.91 in 6.0 mi Variable 4.6 mph - 0.01 in Rain Light Rain
9:53 AM 62.1 °F 61.0 °F 96% 29.89 in 6.0 mi Variable 3.5 mph - 0.01 in Rain Light Rain
10:10 AM 62.1 °F 61.0 °F 96% 29.90 in 1.8 mi Variable 3.5 mph - 0.04 in Rain Rain
10:28 AM 62.1 °F 61.0 °F 96% 29.89 in 3.0 mi Variable 3.5 mph - 0.12 in Rain Light Rain
10:53 AM 62.1 °F 62.1 °F 100% 29.86 in 4.0 mi Variable 3.5 mph - 0.15 in Rain Light Rain
11:28 AM 63.0 °F 62.1 °F 97% 29.88 in 2.5 mi SSW 3.5 mph - 0.05 in Rain Light Rain
11:40 AM 63.0 °F 63.0 °F 100% 29.87 in 4.0 mi Variable 3.5 mph - 0.07 in Rain Light Rain
11:46 AM 64.0 °F 63.0 °F 96% 29.88 in 2.5 mi SSW 5.8 mph - 0.13 in Rain Light Rain
11:51 AM 64.4 °F 62.6 °F 94% 29.88 in 0.8 mi Variable 5.8 mph - 0.19 in Rain Heavy Rain
11:53 AM 64.0 °F 63.0 °F 96% 29.86 in 0.8 mi SW 8.1 mph - 0.20 in Rain Heavy Rain
11:59 AM 64.0 °F 63.0 °F 96% 29.87 in 2.5 mi SW 6.9 mph - 0.00 in Rain Light Rain
12:06 PM 64.0 °F 63.0 °F 96% 29.87 in 10.0 mi WSW 4.6 mph - 0.00 in Rain Light Rain
12:53 PM 64.9 °F 64.0 °F 97% 29.81 in 10.0 mi Variable 4.6 mph - 0.00 in   Overcast
1:53 PM 66.0 °F 64.9 °F 96% 29.78 in 10.0 mi SSW 4.6 mph - N/A   Overcast
2:41 PM 66.9 °F 64.9 °F 93% 29.82 in 1.8 mi NW 17.3 mph 26.5 mph 0.11 in Rain Rain
2:53 PM 63.0 °F 61.0 °F 93% 29.80 in 2.0 mi West 10.4 mph 24.2 mph 0.20 in Rain Rain
2:56 PM 63.0 °F 61.0 °F 93% 29.81 in 2.5 mi NW 6.9 mph 20.7 mph 0.02 in Rain Rain
3:08 PM 64.0 °F 62.1 °F 93% 29.80 in 9.0 mi NNW 5.8 mph - 0.03 in Rain Light Rain
3:53 PM 64.9 °F 63.0 °F 93% 29.78 in 10.0 mi Calm Calm - 0.03 in   Mostly Cloudy
4:50 PM 66.2 °F 62.6 °F 88% 29.81 in 10.0 mi NNW 5.8 mph - N/A   Mostly Cloudy
4:53 PM 68.0 °F 62.1 °F 81% 29.79 in 10.0 mi NNW 5.8 mph - N/A   Scattered Clouds
5:04 PM 68.0 °F 62.1 °F 81% 29.82 in 10.0 mi NNW 5.8 mph - N/A   Mostly Cloudy
5:16 PM 66.9 °F 62.1 °F 84% 29.82 in 10.0 mi WNW 3.5 mph - N/A   Partly Cloudy
5:53 PM 66.9 °F 62.1 °F 84% 29.80 in 10.0 mi Calm Calm - N/A   Clear
6:48 PM 62.6 °F 60.8 °F 94% 29.85 in 1.8 mi Calm Calm - N/A   Clear
6:59 PM 61.0 °F 60.1 °F 97% 29.85 in 4.0 mi Calm Calm - N/A   Clear
7:10 PM 60.1 °F 59.0 °F 96% 29.86 in 1.5 mi Calm Calm - N/A   Clear
7:20 PM 60.1 °F 59.0 °F 96% 29.86 in 3.0 mi Calm Calm - N/A   Clear
7:37 PM 60.1 °F 59.0 °F 96% 29.86 in 3.0 mi Calm Calm - N/A   Clear
7:48 PM 59.0 °F 59.0 °F 100% 29.87 in 1.8 mi NNE 3.5 mph - N/A   Clear
7:53 PM 59.0 °F 59.0 °F 100% 29.85 in 1.2 mi NNW 4.6 mph - N/A   Clear
7:59 PM 59.0 °F 59.0 °F 100% 29.87 in 3.0 mi NNW 4.6 mph - N/A   Clear
8:53 PM 57.0 °F 57.0 °F 100% 29.86 in 2.5 mi West 4.6 mph - N/A   Clear
9:00 PM 57.9 °F 57.0 °F 97% 29.89 in 10.0 mi West 5.8 mph - N/A   Clear
9:53 PM 57.0 °F 54.0 °F 89% 29.88 in 10.0 mi West 4.6 mph - N/A   Clear
10:53 PM 57.0 °F 51.1 °F 81% 29.89 in 10.0 mi WNW 4.6 mph - N/A   Clear
11:53 PM 54.0 °F 50.0 °F 86% 29.90 in 10.0 mi WNW 3.5 mph - N/A   Clear